LEMUR-2-AC-CUBED (48927 NORAD) Tracking and Keplerian Element Data

This shows tracking and keplerian element data for the satellite.

Feedback or suggestion? Click here.




ElementValue
Catalog48927
NameLEMUR-2-AC-CUBED
Epoch Orbit1396
Epoch Day269.11490734
Epoch Year2021
RAAN36.7036
Inclination97.5204
Eccentricity0.0016166
Argument of Perigee292.9115
Mean Anonmoly67.041
Mean Motion15.13850204
Decay Rate3.674E-05
L11 48927U 21059BA 21269.11490734 .00003674 00000-0 20634-3 0 9994
L22 48927 97.5204 36.7036 0016166 292.9115 67.0410 15.13850204 13969

Live tracking and technical data element details for LEMUR-2-AC-CUBED (NORAD 48927). LEMUR-2-AC-CUBED can be tracked NOW for your location showing map with azimuth and elevation plus other details from your city location.

Track the satellite on the map from your city or location and see movement details for azimuth, elevation, latitude, longitude, range, height, and movement on the map or in text.







IsCatalogInMostPopularTable: catalog: 48927, numindb: 18
Update: records affected: 1



GetName: 48927 LEMUR-2-AC-CUBED

Hit Count: updated at: Sun, 26 Sep 2021 15:11:21 GMT